Location: Berkau
(51.9686°N, 12.6409°E)
Time: 14:04:20
(UTC+00:00)

Daily predictions for brighter satellites

Satellite Brightness Start Highest point End
(mag) Time Altitude Azimuth Time Altitude Azimuth Time Altitude Azimuth
Cosmos 2263 Rocket 3.9 15:52:33 10° N 15:55:29 14° NNE 15:58:26 10° NE
H-2A R/B 3.2 15:53:47 10° SE 15:57:22 38° ENE 16:00:56 10° N
ALOS 3.0 15:53:29 10° S 15:58:05 59° W 16:02:43 10° NNW
Cosmos 2082 4.4 15:53:31 10° NNW 15:58:34 32° NE 16:03:35 10° ESE
ASTEX 1 3.5 15:54:05 10° N 15:59:05 63° E 16:04:02 10° S
CENTAUR R/B 3.7 15:54:48 10° W 16:01:01 38° NNW 16:08:11 10° NE
Cosmos 1607 4.0 15:55:10 10° NW 16:01:21 65° NE 16:07:34 10° SE
COSMO-SKYMED 1 4.3 16:03:38 10° NE 16:06:02 14° E 16:08:25 10° ESE
SMAP 3.1 16:01:45 10° SSE 16:06:20 60° ENE 16:10:57 10° N
CZ-4B R/B 4.0 16:02:26 10° S 16:07:38 55° WSW 16:12:51 10° NNW
Helios 1A Rocket 4.3 16:04:01 10° S 16:08:01 45° W 16:12:02 10° NNW
Cosmos 2084 3.5 16:04:27 10° NW 16:08:49 87° SW 16:13:04 10° SE
Meteor 2-3 Rocket 3.8 16:04:52 10° N 16:10:43 76° ENE 16:16:30 10° SSE
Sich 1 3.9 16:08:28 10° N 16:12:12 27° ENE 16:15:55 10° SE
Cosmos 1697 Rocket 4.4 16:11:41 10° ESE 16:13:38 12° E 16:15:21 10° ENE
ATLAS 5 CENTAUR R/B 2.3 16:08:46 10° NW 16:14:17 72° NE 16:20:41 10° SE
Cosmos 1408 3.7 16:11:14 10° NNW 16:14:44 47° W 16:18:11 10° S
Cosmos 1867 3.9 16:10:50 10° SSW 16:16:06 50° ESE 16:21:22 10° NE
Cosmos 1238 Rocket 3.0 16:11:36 10° N 16:16:26 64° ENE 16:20:20 10° SSE
Feng Yun 1-1 Rocket 4.2 16:12:18 10° SSE 16:17:55 83° ENE 16:23:25 10° NNW
ATLAS 3B R/B 3.7 16:11:59 10° W 16:17:58 34° NNW 16:23:58 10° NE
TSX-5 4.2 16:16:09 10° SSW 16:20:08 63° ESE 16:25:19 10° NE
Cosmos 1689 Rocket 3.7 16:17:40 10° N 16:20:31 36° WNW 16:23:20 10° SW
PSLV R/B 3.9 16:16:45 10° NNE 16:21:00 76° ESE 16:25:13 10° S
Cosmos 773 Rocket 4.5 16:18:44 10° S 16:23:29 39° ESE 16:28:18 10° NE
Cosmos 2278 Rocket 4.4 16:27:05 10° NNW 16:29:09 12° N 16:31:13 10° N
Cosmos 1656 Rocket 4.4 16:27:12 10° SW 16:32:32 50° NW 16:37:51 10° NNE
GEOS 3 Rocket 3.9 16:28:49 11° NE 16:33:38 51° SE 16:38:45 10° SSW
NOAA 12 4.1 16:29:09 10° SSE 16:34:26 69° ENE 16:39:46 10° NNW
CZ-3B R/B 2.0 16:33:52 10° WSW 16:35:56 77° NNW 16:37:36 22° ENE
Aureole 2 Rocket 4.4 16:34:01 10° WSW 16:37:00 27° NW 16:40:07 10° N
Cosmos 1356 Rocket 4.1 16:34:33 10° SSE 16:38:15 32° E 16:42:01 10° NNE
YAOGAN 1 3.3 16:34:39 10° SE 16:38:28 31° ENE 16:42:17 10° N
Cosmos 2221 2.4 16:35:24 10° S 16:39:43 83° E 16:44:05 10° NNE
Cosmos 1825 4.0 16:36:47 10° NNW 16:40:15 35° W 16:43:43 10° SSW
Cosmos 1538 Rocket 4.4 16:35:29 10° S 16:40:24 42° ESE 16:45:24 10° NE
COBE Rocket 4.0 16:35:39 10° NNE 16:40:25 52° E 16:45:01 10° S
Lacrosse 4 Rocket 3.1 16:42:43 10° SE 16:44:39 14° ESE 16:44:39 14° ESE
Okean-O 2.6 16:43:28 10° SSE 16:47:55 89° ENE 16:52:24 10° NNW
Cosmos 1656 4.3 16:43:06 10° S 16:48:02 34° ESE 16:51:32 17° NE
Cosmos 1842 Rocket 4.1 16:44:14 10° SSW 16:48:41 62° WNW 16:53:09 10° N
Cosmos 1340 Rocket 4.5 16:46:16 10° SW 16:50:00 35° WNW 16:53:47 10° N
CSL-04 Debris 4.4 16:46:49 10° SE 16:52:05 48° ENE 16:57:22 10° N
Cosmos 724 4.5 16:47:22 10° NW 16:53:08 52° NE 16:57:37 16° ESE
Cosmos 1633 2.8 16:50:02 10° N 16:53:35 46° ENE 16:57:06 10° SSE
CZ-4B R/B 4.4 16:52:34 10° NNW 16:54:06 13° WNW 16:55:39 10° W
SKYMED 2 4.1 16:50:33 10° NNE 16:54:37 37° E 16:58:40 10° SSE
Cosmos 2219 3.8 16:49:23 10° NW 16:54:55 59° WSW 17:00:25 10° SSE
BREEZE-M DEB (TANK) 2.5 16:51:48 10° W 16:55:31 55° S 16:56:25 31° ESE
USA 215 3.3 16:53:04 17° E 16:58:18 71° NNE 17:04:49 10° WNW
Cosmos 1869 3.2 16:54:31 10° S 16:58:24 63° E 17:02:19 10° NNE
CZ-2D R/B 4.1 16:59:09 28° ENE 16:59:28 28° ENE 17:02:51 10° N
CZ-4 R/B 1.4 16:57:06 10° SSE 17:01:12 59° ENE 17:05:14 10° N
Cosmos 2369 Rocket 4.1 16:57:08 10° W 17:01:30 22° NW 17:05:51 10° NNE
Cosmos 1805 Rocket 3.7 17:01:15 10° NNW 17:05:36 76° W 17:09:57 10° S
USA 229 DEB 3.8 17:00:28 10° SSW 17:06:51 55° SE 17:11:21 21° NE
USA 229 3.8 17:00:35 10° SSW 17:06:57 54° SE 17:11:25 22° NE
Envisat 3.1 17:04:49 10° S 17:09:55 79° WSW 17:15:02 10° NNW
CSL-04 Rocket 3.6 17:05:51 10° SSE 17:11:09 65° ENE 17:16:25 10° N
NOSS 3-1 (A) 3.9 17:07:12 10° S 17:12:15 35° ESE 17:14:22 28° E
NOSS 3-1 (C) 3.5 17:07:33 10° SSW 17:12:58 52° ESE 17:16:25 25° ENE
Cosmos 2227 Rocket 2.6 17:10:21 10° NW 17:15:59 64° WSW 17:21:34 10° SSE
YAOGAN 6 2.4 17:12:44 10° SSE 17:16:13 89° ESE 17:19:45 10° NNW
Cosmos 2297 Rocket 2.8 17:10:41 10° NW 17:16:16 60° WSW 17:21:48 10° SSE
Cosmos 1980 Rocket 3.7 17:12:42 10° SSE 17:14:49 17° SE 17:14:49 17° SE
Cosmos 1939 Rocket 3.3 17:16:20 38° E 17:16:54 40° ENE 17:20:48 10° N
Cosmos 2344 3.9 17:13:05 10° WSW 17:20:35 68° NW 17:27:43 17° NE
FengYun 1-2 T 4.3 17:15:09 10° SSE 17:20:42 83° WSW 17:26:15 10° NNW
Cosmos 1371 Rocket 4.2 17:15:42 10° NNW 17:20:46 49° ENE 17:22:57 31° ESE
Cosmos 1464 Rocket 3.9 17:15:29 10° N 17:21:42 87° ENE 17:27:51 10° S
Cosmos 1891 Rocket 4.5 17:15:41 10° N 17:22:08 88° E 17:28:25 10° S
Meteor 2-20 Rocket 4.3 17:17:40 10° S 17:23:47 82° E 17:29:59 10° NNE
SeaSat 1 3.8 17:19:58 10° S 17:24:37 41° WSW 17:29:19 10° NW
Cosmos 397 4.3 17:25:20 10° NW 17:29:36 87° SW 17:31:17 34° SE
Geosat 4.1 17:30:47 18° NNE 17:34:33 74° NW 17:39:34 10° SW
Cosmos 2369 3.9 17:29:36 10° S 17:35:01 49° ESE 17:36:23 40° ENE
Cosmos 1633 Rocket 3.1 17:31:24 10° NNW 17:35:50 83° W 17:40:14 10° S
Cosmos 1943 Rocket 4.5 17:33:38 10° WNW 17:37:01 16° NNW 17:40:25 10° NNE
Genesis I 3.8 17:37:09 10° WSW 17:41:06 56° NW 17:42:05 42° N
Cosmos 2263 Rocket 2.7 17:35:56 10° NNW 17:41:07 38° NE 17:41:12 38° NE
COSMO-SKYMED 1 2.6 17:38:46 12° NNE 17:42:45 79° WNW 17:47:06 10° SSW
Cosmos 2082 4.1 17:37:31 10° NW 17:43:04 62° WSW 17:48:36 10° SSE
Cosmos 1862 3.8 17:41:46 10° NNW 17:45:42 59° W 17:49:35 10° S
Cosmos 1680 Rocket 3.6 17:40:49 10° S 17:45:41 51° ESE 17:45:41 51° ESE
Cosmos 1666 Rocket 4.2 17:42:02 10° NNW 17:46:21 55° W 17:50:36 10° S
Cosmos 1933 Rocket 4.4 17:43:10 10° N 17:45:54 35° NNE 17:45:54 35° NNE
ERBS 4.4 17:46:08 10° SSW 17:47:20 19° SSW 17:47:20 19° SSW
Sich 1 4.5 17:45:58 10° NNW 17:49:59 38° W 17:54:01 10° SSW
Ariane Rocket 2.8 17:51:23 47° SE 17:52:46 71° ENE 17:57:51 10° NNW
CENTAUR R/B 3.8 17:46:59 10° NW 17:53:37 37° NNE 17:56:08 30° NE
Cosmos 2278 3.8 17:49:40 10° S 17:54:50 51° ESE 17:54:50 51° ESE
Cosmos 1328 Rocket 3.8 17:50:51 10° S 17:54:25 57° SSE 17:54:25 57° SSE
USA 238 DEB 4.3 17:49:43 10° NW 17:56:24 43° NNE 17:57:54 39° NE
Cosmos 1697 Rocket 2.6 17:50:54 10° SSW 17:56:29 64° ESE 17:57:07 59° E
USA 238 4.3 17:49:49 10° NW 17:56:30 43° NNE 17:57:59 39° NE
IRS-1A Rocket 4.1 17:55:32 40° SE 17:57:36 71° ENE 18:03:20 10° NNW
H-2A R/B 3.4 18:00:03 26° NNE 18:00:03 26° NNE 18:02:47 10° N
ATLAS 5 CENTAUR R/B 4.0 17:53:42 10° WNW 17:58:48 33° WSW 18:04:31 10° S
Cosmos 1867 4.5 17:54:34 10° WSW 17:59:49 45° NW 18:02:11 29° NNE
Cosmos 1151 Rocket 4.0 17:56:51 10° S 17:59:23 35° S 17:59:23 35° S
NOSS 3-2 (A) 4.3 17:57:06 10° NW 18:03:44 44° NNE 18:05:10 40° NE
BREEZE-M DEB (TANK) 4.4 18:04:08 10° SW 18:06:06 18° SSW 18:06:06 18° SSW
Meteor 1-25 Rocket 4.2 18:03:44 10° N 18:08:49 62° NE 18:08:49 62° NE
Cosmos 2227 4.1 18:03:59 10° NNW 18:09:46 70° ENE 18:09:53 70° ENE
Cosmos 923 Rocket 3.9 18:04:52 10° SSW 18:10:06 86° WNW 18:10:51 66° NNE
ATLAS 3B R/B 3.6 18:04:33 10° NW 18:10:26 32° NNE 18:11:27 30° NNE
GEOS 3 Rocket 4.3 18:09:56 35° NNE 18:11:41 48° NW 18:16:43 10° WSW
Cosmos 1624 Rocket 4.0 18:07:35 10° NNW 18:12:58 82° WSW 18:13:49 64° S
Cosmos 2056 Rocket 3.4 18:07:51 10° NNW 18:13:00 83° WSW 18:13:20 77° S
YAOGAN 1 4.1 18:10:31 10° SSW 18:14:30 36° W 18:18:32 10° NNW
Cosmos 2278 Rocket 4.3 18:13:22 10° N 18:15:35 13° NNE 18:15:35 13° NNE
Cosmos 1470 Rocket 4.1 18:12:46 10° NNW 18:17:12 58° W 18:17:57 50° SW
Cosmos 2346 Rocket 4.5 18:14:20 10° SSW 18:20:36 81° W 18:26:50 10° N
Meteor 1-20 Rocket 4.2 18:15:55 10° NNW 18:21:29 76° NE 18:21:29 76° NE
Lacrosse 4 Rocket 3.0 18:19:01 10° SW 18:21:00 28° SW 18:21:00 28° SW
Gblst 52 Del rocket 4.2 18:18:21 10° W 18:25:07 88° S 18:25:22 83° ESE
Cosmos 1844 Rocket 4.4 18:20:54 10° NNW 18:23:31 21° N 18:23:31 21° N
Cosmos 1656 4.3 18:26:08 10° SW 18:31:32 51° NW 18:33:00 40° N
CZ-4 R/B 4.2 18:33:44 10° SW 18:36:34 18° W 18:39:23 10° NW
Cosmos 1634 Rocket 4.0 18:33:54 10° NNW 18:40:08 77° W 18:40:42 71° SW
MOS 1 4.4 18:41:34 71° WNW 18:41:34 71° WNW 18:46:54 10° NNW
USA 215 3.5 18:40:26 54° S 18:41:29 60° SW 18:47:57 10° WNW
Tsikada Rocket 4.3 18:36:23 10° SSW 18:42:42 67° WNW 18:49:08 10° N
NOSS 3-2 (C) 4.3 18:39:25 10° NW 18:45:53 48° NNE 18:45:53 48° NNE
USA 229 DEB 4.2 18:51:23 10° WSW 18:57:55 53° NNW 18:58:48 50° N
USA 229 4.2 18:51:30 10° WSW 18:58:01 53° NNW 18:58:52 50° N
Cosmos 1980 Rocket 3.8 18:54:25 10° SSW 18:56:39 25° SW 18:56:39 25° SW
NOSS 3-1 (A) 3.9 18:56:59 10° WSW 19:01:51 57° WNW 19:01:51 57° WNW
NOSS 3-1 (C) 4.1 18:58:11 10° WSW 19:03:49 51° NNW 19:03:49 51° NNW
Cosmos 2263 Rocket 3.7 19:19:52 10° NW 19:22:54 31° NW 19:22:54 31° NW
H-2A R/B 4.3 19:40:41 20° NW 19:40:41 20° NW 19:42:24 10° NNW
CENTAUR R/B 3.8 19:38:08 10° NW 19:43:18 46° NNW 19:43:18 46° NNW
ATLAS 3B R/B 4.3 19:55:45 10° NW 19:58:41 27° NNW 19:58:41 27° NNW
